FW8870 Weather Reports


time (UTC)temp
C
wind
direction
speed
KPH
gust
KPH
rain 1hr
cm
rain 24hr
cm
rain mn
cm
humidity
%
barometer
mb
20260503180715 22 301 0.0 0.0 0.00 0.00 0.00 54 1016.1
20260503180214 22 339 0.0 0.0 0.00 0.00 0.00 58 1016.0
20260503175710 22 350 0.0 0.0 0.00 0.00 0.00 58 1016.1
20260503175208 22 337 0.0 0.0 0.00 0.00 0.00 56 1016.2
20260503174704 22 301 0.0 0.0 0.00 0.00 0.00 57 1016.4
20260503174201 22 271 0.0 0.0 0.00 0.00 0.00 58 1016.4
20260503173656 21 341 0.0 0.0 0.00 0.00 0.00 62 1016.3
20260503173153 21 350 0.0 0.0 0.00 0.00 0.00 57 1016.2
20260503172650 21 345 0.0 0.0 0.00 0.00 0.00 61 1016.5
20260503172147 21 291 0.0 0.0 0.00 0.00 0.00 61 1016.5
20260503171643 21 342 0.0 0.0 0.00 0.00 0.00 64 1016.6
20260503171141 20 353 1.6 3.2 0.00 0.00 0.00 64 1016.6
20260503170638 20 83 3.2 4.8 0.00 0.00 0.00 61 1016.7
20260503170135 20 21 0.0 0.0 0.00 0.00 0.00 65 1016.8
20260503150526 13 352 0.0 0.0 0.00 0.00 0.00 87 1017.7
20260503131419 9 322 0.0 0.0 0.00 0.00 0.00 97 1017.1
20260503130916 10 325 0.0 0.0 0.00 0.00 0.00 96 1017.1
20260503130414 10 308 0.0 0.0 0.00 0.00 0.00 95 1017.0
20260503110817 10 347 0.0 0.0 0.00 0.00 0.00 95 1017.1
20260503110314 10 334 0.0 0.0 0.00 0.00 0.00 96 1017.0
20260503100240 10 335 0.0 0.0 0.00 0.00 0.00 98 1016.9
20260503090200 11 329 0.0 0.0 0.00 0.00 0.00 94 1016.9
20260503081630 12 176 0.0 0.0 0.00 0.00 0.00 89 1017.0
20260503081127 12 293 0.0 0.0 0.00 0.00 0.00 88 1016.8
20260503080623 12 332 0.0 0.0 0.00 0.00 0.00 87 1016.6
20260503080120 13 343 0.0 0.0 0.00 0.00 0.00 86 1016.8
20260503072557 13 323 0.0 0.0 0.00 0.00 0.00 88 1016.5
20260503072054 13 341 0.0 0.0 0.00 0.00 0.00 86 1016.5
20260503071551 13 328 0.0 0.0 0.00 0.00 0.00 86 1016.7
20260503071048 14 179 0.0 0.0 0.00 0.00 0.00 84 1016.6
20260503070544 15 6 0.0 0.0 0.00 0.00 0.00 81 1016.7
20260503054957 12 334 0.0 0.0 0.00 0.00 0.00 94 1016.4
20260503054453 12 322 0.0 0.0 0.00 0.00 0.00 96 1016.3
20260503053951 12 337 0.0 0.0 0.00 0.00 0.00 97 1016.1
20260503053449 12 333 0.0 0.0 0.00 0.00 0.00 98 1016.2
20260503052945 12 333 0.0 0.0 0.00 0.00 0.00 97 1016.3
20260503052443 12 333 0.0 0.0 0.00 0.00 0.00 96 1016.1
20260503051939 12 333 0.0 0.0 0.00 0.00 0.00 97 1016.2
20260503051435 12 333 0.0 0.0 0.00 0.00 0.00 96 1016.2
20260503050932 12 333 0.0 0.0 0.00 0.00 0.00 96 1016.2
20260503050428 12 333 0.0 0.0 0.00 0.00 0.00 96 1016.4
20260503045926 12 333 0.0 0.0 0.00 0.00 0.00 96 1016.1
20260503045423 12 333 0.0 0.0 0.00 0.00 0.00 95 1016.1
20260503044920 12 333 0.0 0.0 0.00 0.00 0.00 95 1016.2
20260503044416 13 333 0.0 0.0 0.00 0.00 0.00 94 1016.1
20260503043914 13 334 0.0 0.0 0.00 0.00 0.00 94 1016.1
20260503043410 13 334 0.0 0.0 0.00 0.00 0.00 94 1016.1
20260503042907 13 334 0.0 0.0 0.00 0.00 0.00 93 1015.9
20260503042404 13 334 0.0 0.0 0.00 0.00 0.00 93 1015.9
20260503041900 13 334 0.0 0.0 0.00 0.00 0.00 93 1016.2
20260503041357 13 334 0.0 0.0 0.00 0.00 0.00 93 1015.7
20260503040854 14 334 0.0 0.0 0.00 0.00 0.00 92 1015.8
20260503040352 14 334 0.0 0.0 0.00 0.00 0.00 91 1015.8
20260503035848 15 333 0.0 0.0 0.00 0.00 0.00 90 1015.7
20260503035346 15 333 0.0 0.0 0.00 0.00 0.00 88 1015.6
20260503034843 15 333 0.0 0.0 0.00 0.00 0.00 87 1015.6
20260503034340 15 333 0.0 0.0 0.00 0.00 0.00 86 1015.3
20260503033837 16 333 0.0 0.0 0.00 0.00 0.00 85 1015.6
20260503033335 16 333 0.0 0.0 0.00 0.00 0.00 84 1015.5
20260503032832 16 333 0.0 0.0 0.00 0.00 0.00 84 1015.2
20260503032331 17 333 0.0 0.0 0.00 0.00 0.00 82 1015.4
20260503031828 17 333 0.0 0.0 0.00 0.00 0.00 79 1015.0
20260503031326 18 333 0.0 0.0 0.00 0.00 0.00 77 1015.1
20260503030822 19 333 0.0 0.0 0.00 0.00 0.00 76 1015.2
20260503030319 18 333 0.0 0.0 0.00 0.00 0.00 72 1015.1
20260503025815 18 333 0.0 0.0 0.00 0.00 0.00 72 1015.2
20260503025313 19 333 0.0 0.0 0.00 0.00 0.00 72 1015.1
20260503024810 20 333 0.0 0.0 0.00 0.00 0.00 70 1015.4
20260503024306 20 333 0.0 0.0 0.00 0.00 0.00 70 1015.0
20260503023803 20 333 0.0 0.0 0.00 0.00 0.00 68 1014.9
20260503023301 20 333 0.0 0.0 0.00 0.00 0.00 68 1015.0
20260503022757 20 333 0.0 0.0 0.00 0.00 0.00 68 1015.0
20260503022257 20 331 0.0 0.0 0.00 0.00 0.00 69 1015.0
20260503021754 20 330 0.0 0.0 0.00 0.00 0.00 68 1015.1
20260503021249 20 331 0.0 0.0 0.00 0.00 0.00 66 1014.9
20260503020748 20 326 0.0 0.0 0.00 0.00 0.00 65 1015.1
20260503020245 21 330 0.0 0.0 0.00 0.00 0.00 66 1015.0
20260503015741 21 320 0.0 0.0 0.00 0.00 0.00 63 1015.2
20260503015238 21 327 0.0 0.0 0.00 0.00 0.00 63 1015.2
20260503014734 21 343 0.0 0.0 0.00 0.00 0.00 59 1015.3
20260503014232 21 318 0.0 0.0 0.00 0.00 0.00 61 1015.3
20260503013729 22 319 0.0 0.0 0.00 0.00 0.00 57 1015.1
20260503013227 23 315 0.0 0.0 0.00 0.00 0.00 58 1015.2
20260503012724 23 304 0.0 0.0 0.00 0.00 0.00 51 1015.4
20260503012221 23 318 0.0 0.0 0.00 0.00 0.00 54 1015.3
20260503011717 23 312 0.0 0.0 0.00 0.00 0.00 57 1015.2
20260503011215 23 15 0.0 0.0 0.00 0.00 0.00 54 1015.3
20260503010710 23 323 0.0 0.0 0.00 0.00 0.00 53 1015.4
20260503010208 23 325 0.0 0.0 0.00 0.00 0.00 51 1015.4
20260503005705 23 9 0.0 0.0 0.00 0.00 0.00 54 1015.3
20260503005202 23 317 0.0 0.0 0.00 0.00 0.00 53 1015.4
20260503004658 23 27 0.0 0.0 0.00 0.00 0.00 52 1015.4
20260503004157 23 13 0.0 0.0 0.00 0.00 0.00 54 1015.2
20260503003654 24 332 0.0 0.0 0.00 0.00 0.00 56 1015.3
20260503003150 25 291 0.0 0.0 0.00 0.00 0.00 52 1015.3
20260503002647 25 311 0.0 0.0 0.00 0.00 0.00 53 1015.6
20260503002144 25 294 0.0 0.0 0.00 0.00 0.00 54 1015.5
20260503001640 25 306 0.0 0.0 0.00 0.00 0.00 51 1015.3
20260503001137 25 301 0.0 0.0 0.00 0.00 0.00 53 1015.4
20260503000635 25 298 0.0 0.0 0.00 0.00 0.00 52 1015.6
20260503000132 25 305 0.0 0.0 0.00 0.00 0.00 56 1015.5
20260502235628 25 290 0.0 0.0 0.00 0.00 0.00 55 1015.5
20260502235127 25 356 0.0 0.0 0.00 0.00 0.00 59 1015.6
20260502234622 25 33 0.0 0.0 0.00 0.00 0.00 56 1015.6
20260502234120 25 2 1.6 3.2 0.00 0.00 0.00 55 1015.5
20260502233615 25 325 0.0 0.0 0.00 0.00 0.00 53 1015.6
20260502233113 25 1 0.0 0.0 0.00 0.00 0.00 57 1015.5
20260502232608 25 294 0.0 0.0 0.00 0.00 0.00 56 1015.7
20260502232106 25 2 0.0 0.0 0.00 0.00 0.00 59 1015.6
20260502231603 25 326 0.0 0.0 0.00 0.00 0.00 58 1015.6
20260502231101 25 18 0.0 0.0 0.00 0.00 0.00 56 1015.9
20260502230559 25 164 0.0 0.0 0.00 0.00 0.00 58 1015.7
20260502230057 25 301 0.0 0.0 0.00 0.00 0.00 60 1015.6
20260502225552 25 290 0.0 0.0 0.00 0.00 0.00 55 1016.0
20260502225050 25 319 0.0 0.0 0.00 0.00 0.00 54 1016.0
20260502224545 25 345 0.0 0.0 0.00 0.00 0.00 52 1015.8
20260502224043 25 285 0.0 0.0 0.00 0.00 0.00 61 1015.9
20260502223540 25 54 0.0 0.0 0.00 0.00 0.00 53 1016.1
20260502223039 25 6 3.2 8.0 0.00 0.00 0.00 53 1015.9
20260502222535 26 180 0.0 3.2 0.00 0.00 0.00 53 1016.3
20260502222032 25 268 0.0 0.0 0.00 0.00 0.00 60 1016.2
20260502221527 25 57 0.0 0.0 0.00 0.00 0.00 58 1016.4
20260502221025 25 267 0.0 0.0 0.00 0.00 0.00 61 1016.2
20260502220520 25 278 0.0 0.0 0.00 0.00 0.00 61 1016.5
20260502220018 25 214 0.0 0.0 0.00 0.00 0.00 63 1016.5
20260502215515 25 242 4.8 9.7 0.00 0.00 0.00 58 1016.4
20260502215011 25 327 0.0 0.0 0.00 0.00 0.00 62 1016.6
20260502214509 25 242 0.0 0.0 0.00 0.00 0.00 60 1016.7
20260502214006 25 326 0.0 0.0 0.00 0.00 0.00 54 1016.7
20260502213502 25 309 0.0 0.0 0.00 0.00 0.00 55 1016.6
20260502213001 25 81 0.0 0.0 0.00 0.00 0.00 54 1016.7
20260502212459 25 150 0.0 0.0 0.00 0.00 0.00 57 1016.9
20260502211956 25 1 0.0 1.6 0.00 0.00 0.00 51 1016.8
20260502211452 26 315 0.0 0.0 0.00 0.00 0.00 55 1017.1
20260502210949 25 299 1.6 4.8 0.00 0.00 0.00 48 1017.0
20260502210446 25 210 0.0 0.0 0.00 0.00 0.00 53 1017.1
20260502205943 25 77 0.0 0.0 0.00 0.00 0.00 54 1017.0
20260502205439 25 100 0.0 1.6 0.00 0.00 0.00 49 1016.9
20260502204937 25 260 0.0 0.0 0.00 0.00 0.00 50 1017.0
20260502204433 25 157 8.0 12.9 0.00 0.00 0.00 48 1017.3
20260502203931 24 127 0.0 0.0 0.00 0.00 0.00 52 1017.3
20260502203428 23 21 0.0 1.6 0.00 0.00 0.00 54 1017.4
20260502202924 23 310 0.0 0.0 0.00 0.00 0.00 54 1017.5
20260502202421 23 335 0.0 0.0 0.00 0.00 0.00 52 1017.6
20260502201920 23 309 0.0 0.0 0.00 0.00 0.00 55 1017.6
20260502201415 23 160 1.6 1.6 0.00 0.00 0.00 53 1017.7
20260502200912 23 327 0.0 0.0 0.00 0.00 0.00 53 1017.8
20260502200408 23 91 0.0 0.0 0.00 0.00 0.00 55 1017.8
20260502195906 23 231 0.0 0.0 0.00 0.00 0.00 62 1017.7
20260502195403 23 232 0.0 3.2 0.00 0.00 0.00 61 1017.9
20260502194859 22 356 0.0 0.0 0.00 0.00 0.00 59 1018.2
20260502194356 23 119 0.0 0.0 0.00 0.00 0.00 58 1017.9
20260502193852 22 358 3.2 9.7 0.00 0.00 0.00 59 1018.0
20260502193349 23 13 0.0 0.0 0.00 0.00 0.00 58 1018.0
20260502192844 22 307 0.0 0.0 0.00 0.00 0.00 60 1018.0
20260502192342 22 346 0.0 0.0 0.00 0.00 0.00 59 1018.2
20260502191839 22 345 1.6 4.8 0.00 0.00 0.00 58 1018.2
20260502191337 22 21 1.6 3.2 0.00 0.00 0.00 58 1018.6
20260502190834 21 325 0.0 0.0 0.00 0.00 0.00 62 1018.5
20260502190331 21 35 0.0 0.0 0.00 0.00 0.00 63 1018.3
20260502185827 22 3 0.0 0.0 0.00 0.00 0.00 67 1018.5
20260502185322 21 325 0.0 0.0 0.00 0.00 0.00 65 1018.4
20260502184820 21 281 0.0 3.2 0.00 0.00 0.00 62 1018.7
20260502184315 21 276 0.0 0.0 0.00 0.00 0.00 66 1018.6
20260502183812 20 154 0.0 1.6 0.00 0.00 0.00 66 1018.6
20260502183308 20 331 0.0 0.0 0.00 0.00 0.00 73 1018.8
20260502182803 20 340 0.0 0.0 0.00 0.00 0.00 72 1018.9
20260502182259 20 16 0.0 0.0 0.00 0.00 0.00 73 1018.8
20260502181755 20 220 0.0 0.0 0.00 0.00 0.00 72 1019.0
20260502181249 20 139 0.0 0.0 0.00 0.00 0.00 72 1019.1